Change the Weather History Date:

Wednesday, October 30, 2013

  Actual Average Record
Temperature  
Mean Temperature 70 °F -  
Max Temperature 86 °F - - ()
Min Temperature 55 °F - - ()
Cooling Degree Days 6    
Growing Degree Days 20 (Base 50)    
Moisture  
Dew Point 45 °F    
Average Humidity 43    
Maximum Humidity 77    
Minimum Humidity 12    
Precipitation  
Precipitation 0.00 in - - ()
Sea Level Pressure  
Sea Level Pressure 30.11 in    
Wind  
Wind Speed 5 mph ()    
Max Wind Speed 25 mph    
Max Gust Speed -    
Visibility 9.7 miles    
Events      
T = Trace of Precipitation, MM = Missing Value Source: Averaged Metar Reports

Daily Weather History Graph

Daily Weather History Graph

Search for Another Location

Airport or City:

Trip Planner

Search our weather history database for the weather conditions in past years. The results will help you decide how hot, cold, wet, or windy it might be!

Date:

Astronomy

Oct. 30, 2013 Rise Set
Actual Time 6:09 AM EAT 6:31 PM EAT
Civil Twilight 5:48 AM EAT 6:53 PM EAT
Nautical Twilight 5:22 AM EAT 7:18 PM EAT
Astronomical Twilight 4:57 AM EAT 7:43 PM EAT
Moon 2:46 AM EAT (10/30) 3:05 PM EAT (10/30)
Length of Visible Light 13h 05m
Length of Day
12h 22m
Waning Crescent, 19% of the Moon is Illuminated
Oct 30
Waning Crescent
Nov 3
New
Nov 10
First Quarter
Nov 17
Full
Nov 25
Last Quarter

Hourly Weather History & Observations

Time (EAT) Temp. Dew Point Humidity Pressure Visibility Wind Dir Wind Speed Gust Speed Precip Events Conditions
12:00 AM 62.6 °F 50.0 °F 63% 30.12 in 6.2 mi Calm Calm - N/A   Clear
1:00 AM 62.6 °F 50.0 °F 63% 30.12 in 6.2 mi Calm Calm - N/A   Clear
2:00 AM 60.8 °F 50.0 °F 68% 30.09 in 6.2 mi Calm Calm - N/A   Clear
3:00 AM 60.8 °F 50.0 °F 68% 30.09 in 6.2 mi Calm Calm - N/A   Clear
4:00 AM 60.8 °F 50.0 °F 68% 30.09 in 6.2 mi Calm Calm - N/A   Clear
5:00 AM 60.8 °F 50.0 °F 68% 30.12 in 6.2 mi Calm Calm - N/A   Clear
6:00 AM 57.2 °F 48.2 °F 72% 30.12 in 6.2 mi Calm Calm - N/A   Partly Cloudy
7:00 AM 57.2 °F 50.0 °F 77% 30.15 in 6.2 mi Calm Calm - N/A   Mostly Cloudy
8:00 AM 64.4 °F 50.0 °F 59% 30.18 in - Calm Calm - N/A   Clear
9:00 AM 71 °F 43 °F 25%  in 19 mi Calm Calm - -   Clear
9:00 AM 71.6 °F 42.8 °F 35% 30.18 in - Calm Calm - N/A   Clear
10:00 AM 78.8 °F 37.4 °F 23% 30.18 in - Calm Calm - N/A   Clear
11:00 AM 82.4 °F 39.2 °F 21% 30.15 in - NE 13.8 mph - N/A   Clear
12:00 PM - - N/A% 30.12 in - ENE 25.3 mph - N/A   Clear
1:00 PM - - N/A% 30.09 in - East 23.0 mph - N/A   Clear
2:00 PM 86.0 °F 33.8 °F 15% 30.06 in - NE 23.0 mph - N/A   Clear
3:00 PM 84 °F 40 °F 12%  in 19 mi East 16.1 mph - -   Clear
3:00 PM 84.2 °F 39.2 °F 20% 30.06 in - East 16.1 mph - N/A   Clear
5:00 PM 80.6 °F 39.2 °F 23% 30.04 in - East 20.7 mph - N/A   Clear
6:00 PM 78 °F 44 °F 20%  in 19 mi ESE 16.1 mph - -   Clear
6:00 PM 84.2 °F 44.6 °F 25% 30.06 in - ESE 18.4 mph - N/A   Clear
7:00 PM 73.4 °F 44.6 °F 36% 30.06 in - SE 9.2 mph - N/A   Clear
8:00 PM 71.6 °F 44.6 °F 38% 30.09 in - South 9.2 mph - N/A   Clear